Regional Weather Roundup
Issued by NWS Bismarck, ND

Home | Current Version | Previous Version | Text Only | Print | Product List | Glossary On
Versions: 1 2 3 4 5 6 7 8 9 10 11 12 13 14 15 16 17 18 19 20 21 22 23 24 25 26 27 28 29 30 31 32 33 34 35 36 37 38 39 40 41 42 43 44 45 46 47 48 49 50
000
ASUS43 KBIS 280410
RWRBIS

NWR BROADCAST TEXT
NATIONAL WEATHER SERVICE BISMARCK ND
1100 PM CDT WED AUG 27 2014

NOTE: "FAIR" INDICATES FEW OR NO CLOUDS BELOW 12,000 FEET WITH NO
SIGNIFICANT WEATHER AND/OR OBSTRUCTIONS TO VISIBILITY.


CITY           SKY/WX    TMP DP  RH WIND       PRES   REMARKS
WILLISTON      CLEAR     70  52  52 S7        29.94F
MINOT          CLEAR     63  57  81 SE7       29.98F
MINOT AFB      CLEAR     62  61  99 S7        29.97F
BISMARCK       CLOUDY    63  60  90 S5        30.04F
DICKINSON      PTCLDY    63  60  90 S12       30.02F
GARRISON         N/A     65  61  87 S9        30.01F
HETTINGER ARPT MOCLDY    61  59  93 S5        30.07S
JAMESTOWN      CLOUDY    66  61  84 SE8       30.06S
BEACH            N/A     63  63 100 S12       30.02F
CARRINGTON     MOCLDY    61  61 100 S6        30.06F
CROSBY         FAIR      66  57  72 S14       29.93F
HARVEY         FAIR      63  63 100 S6        30.03F
HAZEN          FAIR      63  59  88 S12       30.02F
LINTON         CLOUDY    64  59  82 SE7       30.04F
MANDAN         CLOUDY    63  59  88 S5        30.05F
OAKES            N/A     64  64 100 E6        30.06F
RUGBY          FAIR      63  59  88 S9        30.02S
STANLEY        FAIR      59  59 100 SW3       29.99S
TIOGA          FAIR      63  63 100 SE9       30.00S
WATFORD CITY   FAIR      68  55  64 S13G18    29.95F
$$

CITY           SKY/WX    TMP DP  RH WIND       PRES   REMARKS
GRAND FORKS    CLEAR     61  57  87 SE6       30.06S
GRAND FORKS AF CLEAR     60  60  99 S6        30.07S
DEVILS LAKE    CLEAR     64  55  72 S9        30.03F
FARGO          CLOUDY    66  59  78 SE7       30.07F
CANDO          FAIR      61  59  94 S7        30.04S
CAVALIER       FAIR      59  55  88 S6        30.05S
GRAFTON        FAIR      57  57 100 S7        30.05S
GWINNER        CLOUDY    66  63  88 SE6       30.08F
LANGDON        FAIR      55  54  94 SE8       30.05S
ROLLA          FAIR      59  59 100 S9        30.03F
WALHALLA         N/A     63  63 100 S7        30.04S
$$

CITY           SKY/WX    TMP DP  RH WIND       PRES   REMARKS
ABERDEEN       MOCLDY    64  63  96 SE5       30.05F
MOBRIDGE       CLOUDY    66  64  93 E7        30.00F
BUFFALO          N/A     62  60  93 S7        30.01S
RAPID CITY     CLOUDY    63  61  93 NW6       30.06F
GLASGOW        CLEAR     67  52  58 CALM      29.92S
SIDNEY         CLEAR     63  55  77 SW5       29.96S
WOLF POINT     CLEAR     65  55  70 CALM      29.92S
GLENDIVE       CLEAR     70  57  64 S12       29.99S
MILES CITY     PTCLDY    71  51  49 S9        29.97S
BAKER          PTCLDY    65  60  84 S18       30.04F
$$

CITY           SKY/WX    TMP DP  RH WIND       PRES   REMARKS
BILLINGS       PTCLDY    71  51  49 SW3       30.03R
GREAT FALLS    CLEAR     66  47  50 S8        30.02R
REGINA         CLEAR     64  57  77 SE9       29.85F
ESTEVAN        PTCLDY    64  57  77 SE7       29.93F
$$




USA.gov is the U.S. government's official web portal to all federal, state and local government web resources and services.